SCP
0 0 0 0 0 0 0 0 0 0 0 0 0 0 0 0 0 0 0 0 0 0 0 0 0 0 0 0 0 0 0 0 0 0 0 0 0 0 0 0 0 0 0
0 0 0 0 0 0 0 0 0 0 0 0 0 0 0 0 0 0 0 0 0 0 0 0 0 0 0 0 0 0 0 0 0 0 0 0 0 0 0 0 0 0 0
0 0 0 0 0 0 0 0 0 0 0 0 0 0 0 0 0 0 0 0 0 0 0 0 0 0 0 0 0 0 0 0 0 0 0 0 0 0 0 0 0 0 0
0 0 0 0 0 0 0 0 0 0 0 0 0 0 0 0 0 0 0 0 0 0 0 0 0 0 0 0 0 0 0 0 0 0 0 0 0 0 0 0 0 0 0
0 0 0 0 0 0 0 0 0 0 0 0 0 0 0 0 0 0 0 0 0 0 0 0 0 0 0 0 0 0 0 0 0 0 0 0 0 0 0 0 0 0 0
0 0 0 0 0 0 0 0 0 0 0 0 0 0 0 0 0 0 0 0 0 0 0 0 0 0 0 0 0 0 0 0 0 0 0 0 0 0 0 0 0 0 0
0 0 0 0 0 0 0 0 0 0 0 0 0 0 0 0 0 0 0 0 0 0 0 0 0 0 0 0 0 0 0 0 0 0 0 0 0 0 0 0 0 0 0
0 0 0 0 0 0 0 0 0 0 0 0 0 0 0 0 0 0 0 0 0 0 0 0 0 0 0 0 0 0 0 0 0 0 0 0 0 0 0 0 0 0 0
0 0 0 0 0 0 -0 -0 -0 -0 -0 0 0 0 0 0 0 0 0 0 0 0 0 0 0 0 0 0 0 0 0 0 0 0 0 0 0 0 0 0 0 0 0
-0 -0 -0 -0 -0 -0 -0 -0 -0 -0 -0 -0 0 0 0 0 0 0 0 0 0 0 0 0 0 0 0 0 0 0 0 0 0 0 0 0 0 0 0 0 0 0 0
0 0 0 0 -0 -0 -0 -0 -0 0 0 0 -0 -0 0 0 0 0 0 0 0 0 0 0 0 0 0 0 0 0 0 0 0 0 0 0 0 0 0 0 0 0 0
0 0 -0 -0 -0 0 0 0 0 0 0 0 0 0 -0 -0 -0 -0 0 0 0 0 0 0 0 0 0 0 0 0 0 0 0 0 0 0 0 0 0 0 0 0 0
0 0 0 0 0 0 0 0 0 0 0 -0 -0 -0 -0 -0 -0 -0 -0 -0 -0 -0 0 0 0 0 0 0 0 0 0 0 0 0 0 0 0 0 0 0 0 0 0
0 0 0 0 0 0 0 0 0 0 0 -0 -0 -0 -0 -0 -0 -0 -0 -0 -0 -0 -0 -0 0 0 0 0 0 0 0 0 0 0 0 0 0 0 0 0 0 0 0
-0 -0 0 0 0 0 0 0 -0 -0 -0 -0 -0 -0 -0 0 0 0 0 -0 -0 -0 0 0 0 0 0 0 0 0 0 0 0 0 0 0 0 0 0 0 0 0 0
0 0 0 -0 -0 -0 -0 -0 -0 -0 -0 -0 -0 -0 0 0 0 0 -0 -0 0 -0 -0 0 0 0 0 0 0 0 0 0 0 0 0 0 0 0 0 0 0 0 0
0 0 0 0 -0 -0 0 -0 -0 -0 -0 -0 0 0 0 0 0 0 0 0 0 0 -0 -0 -0 0 0 0 0 0 0 0 0 0 0 0 0 0 0 0 0 0 0
0 0 0 0 0 0 0 0 0 0 -0 -0 -0 -0 -0 0 0 0 0 0 0 0 0 0 0 0 0 -0 0 0 0 0 0 0 0 0 0 0 0 0 0 0 0
0 0 0 0 0 0 0 0 0 0 0 0 -0 0 0 0 0 0 0 0 0 0 0 0 0 0 0 0 0 0 0 0 0 0 0 0 0 0 0 0 0 0 0
0 0 0 0 0 0 0 0 0 0 0 0 0 0 0 0 0 0 0 0 0 0 0 0 0 0 0 0 0 0 0 0 0 0 0 0 0 0 0 0 0 0 0
0 0 0 0 0 0 0 0 0 0 0 0 0 0 0 0 0 0 0 0 0 0 0 0 0 0 0 0 0 0 0 0 0 0 0 0 0 0 -0 -0 0 0 0
0 0 0 0 0 0 0 0 0 0 0 0 0 0 0 0 0 0 0 0 0 0 0 0 0 0 0 0 0 0 0 0 0 0 0 0 0 0 -0 0 0 0 0
0 0 0 0 0 0 0 0 0 0 0 0 0 0 0 0 0 0 0 0 0 0 0 0 0 0 0 0 0 0 0 0 0 0 0 0 0 0 0 0 0 0 0
0 0 0 0 0 0 0 0 0 0 0 0 0 0 0 0 0 0 0 0 0 0 0 0 0 0 0 0 0 0 0 0 0 0 0 0 0 0 0 0 0 0 0
0 0 0 0 0 0 0 0 0 0 0 0 0 0 0 0 0 0 0 0 0 0 0 0 0 0 0 0 0 0 0 0 0 0 0 0 0 0 0 0 0 0 0
0 0 0 0 0 0 0 0 0 0 0 0 0 0 0 0 0 0 0 0 0 0 0 -0 0 0 0 -0 -0 -0 0 0 0 0 0 0 0 0 0 0 0 0 0
Wind_Speed_500mb
29 25 22 21 9 2 7 18 30 22 26 34 35 42 48 45 49 53 52 59 65 69 67 72 77 81 81 76 70 69 67 66 62 58 54 52 50 48 45 41 38 36 36
35 35 37 37 42 39 26 14 7 17 15 20 18 24 24 31 36 40 51 55 57 65 65 66 75 80 81 77 77 77 76 73 72 68 57 40 52 52 53 49 48 44 43
38 38 45 51 50 55 50 37 23 11 5 12 23 23 29 30 29 28 36 43 51 59 66 65 69 79 82 80 80 81 81 83 80 77 57 26 27 37 50 56 54 53 50
31 37 44 50 53 50 46 42 36 27 20 12 5 5 11 17 14 13 28 31 40 50 59 65 65 69 79 82 82 84 85 85 86 81 80 77 52 33 28 43 55 59 57
33 39 41 45 48 50 50 49 44 39 31 22 15 9 3 8 14 19 19 26 33 36 38 48 57 61 72 79 81 87 90 92 92 95 90 85 69 58 55 45 51 54 56
31 33 35 39 43 44 45 45 45 45 41 38 30 20 11 8 2 11 16 19 24 26 28 33 46 54 58 68 76 83 89 91 94 97 96 97 93 85 66 59 58 55 55
27 30 33 34 33 34 36 38 40 41 40 35 32 33 30 22 17 12 12 16 17 23 29 31 29 38 49 58 68 74 83 89 93 98 102 100 100 97 90 82 59 58 62
26 28 29 30 32 33 31 27 26 29 34 33 33 32 29 27 27 26 22 18 20 26 29 30 37 35 35 41 53 69 74 82 90 95 99 104 103 100 98 94 83 66 63
18 17 16 18 19 23 26 28 28 26 24 23 26 29 33 35 34 30 30 30 27 23 22 32 39 41 42 40 43 54 67 75 83 90 95 102 106 105 101 101 98 84 71
13 9 8 8 12 15 17 23 25 29 31 31 29 25 24 28 31 34 39 39 37 35 34 33 30 32 38 43 43 48 53 65 75 82 90 96 101 105 107 105 104 101 95
3 5 8 14 21 21 20 23 29 35 39 38 34 32 32 30 29 30 34 40 44 48 47 42 38 37 34 35 42 47 50 56 63 71 82 90 93 100 105 108 108 104 99
5 7 8 6 7 16 24 30 32 34 38 41 42 44 42 43 43 41 38 37 38 43 50 52 53 50 44 41 40 43 46 54 63 66 72 81 85 94 99 104 110 109 107
1 1 4 10 15 21 26 30 36 42 43 47 51 53 54 53 54 52 49 48 47 46 48 50 54 57 59 56 49 50 51 49 57 65 71 75 77 87 92 99 108 111 109
11 11 12 16 20 23 27 35 38 42 48 51 56 58 59 62 63 64 65 66 66 68 67 65 61 60 61 60 59 58 56 56 62 63 68 73 75 83 88 91 101 104 111
19 16 17 25 28 30 31 39 45 47 53 55 57 62 66 68 70 72 76 81 83 83 81 81 79 72 66 66 65 63 62 62 63 65 71 73 73 76 81 90 96 103 105
15 20 21 21 27 32 38 44 50 53 57 62 67 68 69 73 78 81 85 86 87 88 92 93 93 92 87 78 69 70 72 71 69 69 68 70 76 76 75 83 94 99 103
18 19 25 32 31 32 30 35 37 42 52 66 71 73 76 79 80 80 82 86 90 92 96 99 99 101 101 99 93 82 79 80 80 79 74 73 75 76 79 81 84 95 107
20 27 29 31 38 43 48 48 50 57 67 72 75 77 78 81 84 87 92 98 101 105 108 111 111 112 111 108 106 104 99 95 91 87 84 81 78 77 78 79 87 88 96
32 30 30 35 33 41 50 57 65 70 74 76 78 79 77 82 87 96 102 108 109 116 120 122 126 128 129 122 119 114 107 111 110 102 94 88 88 83 77 82 86 87 93
28 30 34 40 46 51 58 66 71 76 78 80 85 91 94 96 93 94 95 94 95 107 112 125 134 136 138 136 133 120 97 100 117 119 110 101 94 89 79 77 85 93 101
37 44 44 49 51 57 65 71 75 80 84 93 99 102 102 103 103 103 101 100 100 105 107 112 124 128 132 139 135 113 91 94 99 105 113 114 105 94 87 78 80 92 84
45 47 52 55 59 65 71 80 87 93 97 99 101 103 105 105 105 103 104 98 88 84 89 93 102 103 100 99 99 95 89 86 91 100 104 106 103 95 87 71 80 82 86
42 47 53 58 60 66 77 88 93 93 96 98 100 103 104 101 94 89 87 86 80 77 79 79 84 90 87 88 85 84 82 83 86 95 98 92 82 75 74 74 77 83 85
45 49 54 56 65 74 81 84 85 85 90 96 99 99 98 90 82 79 80 81 81 80 79 80 86 92 94 90 87 86 80 70 62 70 89 89 83 83 83 83 83 81 90
45 48 51 60 72 78 79 77 75 79 86 89 92 93 86 82 83 80 77 74 77 77 82 88 92 93 95 88 85 84 87 86 79 78 71 72 75 75 75 77 80 86 86
42 46 53 65 73 75 76 70 69 73 80 87 86 83 83 82 81 82 85 73 68 70 73 78 83 94 95 92 88 85 84 82 80 85 96 84 67 73 65 65 72 84 88
Wind_Direction_500mb
56 45 41 34 28 318 232 226 218 218 242 250 249 240 235 241 241 241 244 246 254 256 250 246 243 242 241 241 240 238 233 232 230 231 235 237 241 242 245 247 250 250 250
55 53 57 60 57 60 64 70 132 198 232 229 235 237 241 247 255 256 250 247 251 257 257 250 246 246 246 241 237 236 232 230 232 229 232 236 241 244 246 249 252 252 251
53 50 53 57 61 59 57 62 70 109 196 206 225 233 226 227 227 240 252 255 248 252 259 257 251 250 250 247 246 242 238 235 233 232 225 211 226 233 239 241 245 249 249
67 60 54 55 54 55 58 58 63 70 84 109 150 208 198 224 226 255 276 276 263 259 261 262 259 254 255 252 248 247 244 240 238 234 231 232 237 218 220 238 241 243 246
64 60 58 55 55 54 51 52 53 55 56 64 69 85 149 234 219 218 244 265 277 279 270 265 263 258 255 256 253 250 247 244 242 241 240 232 232 236 238 234 233 237 242
71 63 55 50 49 45 43 42 44 48 48 48 47 44 33 16 322 219 257 275 282 289 289 273 261 259 257 258 258 256 253 250 249 246 243 242 236 231 231 236 240 245 246
65 52 42 34 29 30 27 25 21 23 28 28 38 42 44 36 32 13 320 304 290 299 305 297 279 270 264 261 262 260 258 255 252 250 249 247 244 246 247 245 244 245 241
51 40 29 26 21 21 22 24 22 16 12 9 16 16 16 24 30 29 20 353 315 291 278 279 288 289 278 267 262 262 262 261 257 253 251 251 250 247 246 246 241 239 241
56 43 28 27 31 20 12 15 20 23 22 13 9 6 4 4 7 10 8 3 356 339 312 280 281 282 283 278 271 265 262 262 263 260 255 252 253 252 249 248 247 242 243
110 103 78 27 34 35 23 13 14 21 23 23 23 23 14 3 1 2 357 350 344 340 338 337 321 303 292 287 277 271 267 265 263 264 262 257 252 252 253 250 250 247 246
111 72 55 34 360 6 15 12 7 5 7 10 8 8 8 7 2 6 352 344 341 339 339 336 330 325 314 296 287 282 275 267 266 266 265 264 261 255 252 252 251 249 246
318 13 27 49 18 6 3 358 359 358 356 353 351 351 354 353 356 358 350 339 332 330 330 331 331 331 322 311 303 288 283 277 272 268 267 267 265 261 258 254 253 250 247
14 346 357 16 2 355 349 350 346 344 345 343 341 341 342 343 342 342 339 335 332 331 327 322 319 319 321 322 318 303 294 280 274 273 269 265 265 265 260 256 254 254 251
246 288 313 326 330 332 337 340 341 337 332 333 331 331 330 330 330 328 324 322 322 322 322 322 319 315 312 313 314 312 307 297 287 277 271 269 263 261 263 259 255 254 253
257 256 269 296 307 307 312 326 329 333 334 332 326 322 323 322 320 317 315 314 314 314 313 311 310 309 307 306 306 305 306 305 300 291 284 274 267 263 260 260 259 254 250
322 324 276 276 278 282 291 308 314 318 321 324 324 320 316 314 314 312 310 308 307 305 305 304 304 302 301 300 301 302 302 300 296 294 291 287 281 268 261 258 256 255 253
299 314 306 292 289 287 288 288 291 288 303 310 314 314 313 311 309 307 304 303 303 302 300 300 298 297 296 296 295 293 292 293 293 294 294 291 286 283 276 264 256 252 251
309 308 299 293 299 287 284 285 292 298 310 314 314 314 312 310 308 306 302 300 299 297 295 293 292 292 290 291 292 292 290 286 286 288 290 291 290 286 283 278 267 256 250
302 302 299 297 294 289 290 297 303 312 314 314 313 311 306 302 300 299 298 298 296 294 291 289 288 288 286 284 284 285 285 285 284 282 283 285 288 288 285 280 275 269 263
295 290 287 293 296 300 303 306 310 313 314 312 309 307 304 301 297 294 292 289 285 286 287 288 288 287 286 282 282 282 279 278 279 280 279 279 280 283 283 274 269 267 269
280 283 290 301 305 308 311 313 315 316 314 312 310 308 307 306 303 301 298 294 288 283 282 281 282 284 286 285 283 283 278 272 270 271 275 276 277 278 280 276 262 265 272
277 289 301 308 313 315 317 317 316 317 315 313 311 311 310 310 309 308 306 305 300 291 286 285 284 284 285 285 285 283 279 274 269 267 267 270 272 275 275 265 259 259 256
287 296 303 309 313 315 317 315 316 316 314 313 314 315 315 315 315 314 313 312 310 301 293 289 288 288 288 287 288 285 279 274 268 263 263 263 264 266 265 259 254 252 248
291 299 306 310 314 317 317 317 318 317 316 316 318 320 320 319 318 317 315 310 305 300 295 293 291 292 292 291 292 290 283 272 276 272 260 257 257 260 263 261 254 249 245
292 301 307 311 314 317 317 319 320 318 318 319 322 323 321 322 319 317 314 307 302 299 298 295 293 293 292 291 292 289 286 283 282 281 279 267 261 258 257 253 249 249 244
293 299 306 311 315 316 317 322 321 320 322 324 323 326 326 324 321 317 314 316 301 299 296 294 292 292 290 291 290 287 283 278 272 270 271 272 267 255 262 257 253 245 243
Wind_Speed_850mb
29 25 22 21 9 2 7 18 30 22 26 34 35 42 48 45 49 53 52 59 65 69 67 72 77 81 81 76 70 69 67 66 62 58 54 52 50 48 45 41 38 36 36
35 35 37 37 42 39 26 14 7 17 15 20 18 24 24 31 36 40 51 55 57 65 65 66 75 80 81 77 77 77 76 73 72 68 57 40 52 52 53 49 48 44 43
38 38 45 51 50 55 50 37 23 11 5 12 23 23 29 30 29 28 36 43 51 59 66 65 69 79 82 80 80 81 81 83 80 77 57 26 27 37 50 56 54 53 50
31 37 44 50 53 50 46 42 36 27 20 12 5 5 11 17 14 13 28 31 40 50 59 65 65 69 79 82 82 84 85 85 86 81 80 77 52 33 28 43 55 59 57
33 39 41 45 48 50 50 49 44 39 31 22 15 9 3 8 14 19 19 26 33 36 38 48 57 61 72 79 81 87 90 92 92 95 90 85 69 58 55 45 51 54 56
31 33 35 39 43 44 45 45 45 45 41 38 30 20 11 8 2 11 16 19 24 26 28 33 46 54 58 68 76 83 89 91 94 97 96 97 93 85 66 59 58 55 55
27 30 33 34 33 34 36 38 40 41 40 35 32 33 30 22 17 12 12 16 17 23 29 31 29 38 49 58 68 74 83 89 93 98 102 100 100 97 90 82 59 58 62
26 28 29 30 32 33 31 27 26 29 34 33 33 32 29 27 27 26 22 18 20 26 29 30 37 35 35 41 53 69 74 82 90 95 99 104 103 100 98 94 83 66 63
18 17 16 18 19 23 26 28 28 26 24 23 26 29 33 35 34 30 30 30 27 23 22 32 39 41 42 40 43 54 67 75 83 90 95 102 106 105 101 101 98 84 71
13 9 8 8 12 15 17 23 25 29 31 31 29 25 24 28 31 34 39 39 37 35 34 33 30 32 38 43 43 48 53 65 75 82 90 96 101 105 107 105 104 101 95
3 5 8 14 21 21 20 23 29 35 39 38 34 32 32 30 29 30 34 40 44 48 47 42 38 37 34 35 42 47 50 56 63 71 82 90 93 100 105 108 108 104 99
5 7 8 6 7 16 24 30 32 34 38 41 42 44 42 43 43 41 38 37 38 43 50 52 53 50 44 41 40 43 46 54 63 66 72 81 85 94 99 104 110 109 107
1 1 4 10 15 21 26 30 36 42 43 47 51 53 54 53 54 52 49 48 47 46 48 50 54 57 59 56 49 50 51 49 57 65 71 75 77 87 92 99 108 111 109
11 11 12 16 20 23 27 35 38 42 48 51 56 58 59 62 63 64 65 66 66 68 67 65 61 60 61 60 59 58 56 56 62 63 68 73 75 83 88 91 101 104 111
19 16 17 25 28 30 31 39 45 47 53 55 57 62 66 68 70 72 76 81 83 83 81 81 79 72 66 66 65 63 62 62 63 65 71 73 73 76 81 90 96 103 105
15 20 21 21 27 32 38 44 50 53 57 62 67 68 69 73 78 81 85 86 87 88 92 93 93 92 87 78 69 70 72 71 69 69 68 70 76 76 75 83 94 99 103
18 19 25 32 31 32 30 35 37 42 52 66 71 73 76 79 80 80 82 86 90 92 96 99 99 101 101 99 93 82 79 80 80 79 74 73 75 76 79 81 84 95 107
20 27 29 31 38 43 48 48 50 57 67 72 75 77 78 81 84 87 92 98 101 105 108 111 111 112 111 108 106 104 99 95 91 87 84 81 78 77 78 79 87 88 96
32 30 30 35 33 41 50 57 65 70 74 76 78 79 77 82 87 96 102 108 109 116 120 122 126 128 129 122 119 114 107 111 110 102 94 88 88 83 77 82 86 87 93
28 30 34 40 46 51 58 66 71 76 78 80 85 91 94 96 93 94 95 94 95 107 112 125 134 136 138 136 133 120 97 100 117 119 110 101 94 89 79 77 85 93 101
37 44 44 49 51 57 65 71 75 80 84 93 99 102 102 103 103 103 101 100 100 105 107 112 124 128 132 139 135 113 91 94 99 105 113 114 105 94 87 78 80 92 84
45 47 52 55 59 65 71 80 87 93 97 99 101 103 105 105 105 103 104 98 88 84 89 93 102 103 100 99 99 95 89 86 91 100 104 106 103 95 87 71 80 82 86
42 47 53 58 60 66 77 88 93 93 96 98 100 103 104 101 94 89 87 86 80 77 79 79 84 90 87 88 85 84 82 83 86 95 98 92 82 75 74 74 77 83 85
45 49 54 56 65 74 81 84 85 85 90 96 99 99 98 90 82 79 80 81 81 80 79 80 86 92 94 90 87 86 80 70 62 70 89 89 83 83 83 83 83 81 90
45 48 51 60 72 78 79 77 75 79 86 89 92 93 86 82 83 80 77 74 77 77 82 88 92 93 95 88 85 84 87 86 79 78 71 72 75 75 75 77 80 86 86
42 46 53 65 73 75 76 70 69 73 80 87 86 83 83 82 81 82 85 73 68 70 73 78 83 94 95 92 88 85 84 82 80 85 96 84 67 73 65 65 72 84 88
Wind_Direction_850mb
56 45 41 34 28 318 232 226 218 218 242 250 249 240 235 241 241 241 244 246 254 256 250 246 243 242 241 241 240 238 233 232 230 231 235 237 241 242 245 247 250 250 250
55 53 57 60 57 60 64 70 132 198 232 229 235 237 241 247 255 256 250 247 251 257 257 250 246 246 246 241 237 236 232 230 232 229 232 236 241 244 246 249 252 252 251
53 50 53 57 61 59 57 62 70 109 196 206 225 233 226 227 227 240 252 255 248 252 259 257 251 250 250 247 246 242 238 235 233 232 225 211 226 233 239 241 245 249 249
67 60 54 55 54 55 58 58 63 70 84 109 150 208 198 224 226 255 276 276 263 259 261 262 259 254 255 252 248 247 244 240 238 234 231 232 237 218 220 238 241 243 246
64 60 58 55 55 54 51 52 53 55 56 64 69 85 149 234 219 218 244 265 277 279 270 265 263 258 255 256 253 250 247 244 242 241 240 232 232 236 238 234 233 237 242
71 63 55 50 49 45 43 42 44 48 48 48 47 44 33 16 322 219 257 275 282 289 289 273 261 259 257 258 258 256 253 250 249 246 243 242 236 231 231 236 240 245 246
65 52 42 34 29 30 27 25 21 23 28 28 38 42 44 36 32 13 320 304 290 299 305 297 279 270 264 261 262 260 258 255 252 250 249 247 244 246 247 245 244 245 241
51 40 29 26 21 21 22 24 22 16 12 9 16 16 16 24 30 29 20 353 315 291 278 279 288 289 278 267 262 262 262 261 257 253 251 251 250 247 246 246 241 239 241
56 43 28 27 31 20 12 15 20 23 22 13 9 6 4 4 7 10 8 3 356 339 312 280 281 282 283 278 271 265 262 262 263 260 255 252 253 252 249 248 247 242 243
110 103 78 27 34 35 23 13 14 21 23 23 23 23 14 3 1 2 357 350 344 340 338 337 321 303 292 287 277 271 267 265 263 264 262 257 252 252 253 250 250 247 246
111 72 55 34 360 6 15 12 7 5 7 10 8 8 8 7 2 6 352 344 341 339 339 336 330 325 314 296 287 282 275 267 266 266 265 264 261 255 252 252 251 249 246
318 13 27 49 18 6 3 358 359 358 356 353 351 351 354 353 356 358 350 339 332 330 330 331 331 331 322 311 303 288 283 277 272 268 267 267 265 261 258 254 253 250 247
14 346 357 16 2 355 349 350 346 344 345 343 341 341 342 343 342 342 339 335 332 331 327 322 319 319 321 322 318 303 294 280 274 273 269 265 265 265 260 256 254 254 251
246 288 313 326 330 332 337 340 341 337 332 333 331 331 330 330 330 328 324 322 322 322 322 322 319 315 312 313 314 312 307 297 287 277 271 269 263 261 263 259 255 254 253
257 256 269 296 307 307 312 326 329 333 334 332 326 322 323 322 320 317 315 314 314 314 313 311 310 309 307 306 306 305 306 305 300 291 284 274 267 263 260 260 259 254 250
322 324 276 276 278 282 291 308 314 318 321 324 324 320 316 314 314 312 310 308 307 305 305 304 304 302 301 300 301 302 302 300 296 294 291 287 281 268 261 258 256 255 253
299 314 306 292 289 287 288 288 291 288 303 310 314 314 313 311 309 307 304 303 303 302 300 300 298 297 296 296 295 293 292 293 293 294 294 291 286 283 276 264 256 252 251
309 308 299 293 299 287 284 285 292 298 310 314 314 314 312 310 308 306 302 300 299 297 295 293 292 292 290 291 292 292 290 286 286 288 290 291 290 286 283 278 267 256 250
302 302 299 297 294 289 290 297 303 312 314 314 313 311 306 302 300 299 298 298 296 294 291 289 288 288 286 284 284 285 285 285 284 282 283 285 288 288 285 280 275 269 263
295 290 287 293 296 300 303 306 310 313 314 312 309 307 304 301 297 294 292 289 285 286 287 288 288 287 286 282 282 282 279 278 279 280 279 279 280 283 283 274 269 267 269
280 283 290 301 305 308 311 313 315 316 314 312 310 308 307 306 303 301 298 294 288 283 282 281 282 284 286 285 283 283 278 272 270 271 275 276 277 278 280 276 262 265 272
277 289 301 308 313 315 317 317 316 317 315 313 311 311 310 310 309 308 306 305 300 291 286 285 284 284 285 285 285 283 279 274 269 267 267 270 272 275 275 265 259 259 256
287 296 303 309 313 315 317 315 316 316 314 313 314 315 315 315 315 314 313 312 310 301 293 289 288 288 288 287 288 285 279 274 268 263 263 263 264 266 265 259 254 252 248
291 299 306 310 314 317 317 317 318 317 316 316 318 320 320 319 318 317 315 310 305 300 295 293 291 292 292 291 292 290 283 272 276 272 260 257 257 260 263 261 254 249 245
292 301 307 311 314 317 317 319 320 318 318 319 322 323 321 322 319 317 314 307 302 299 298 295 293 293 292 291 292 289 286 283 282 281 279 267 261 258 257 253 249 249 244
293 299 306 311 315 316 317 322 321 320 322 324 323 326 326 324 321 317 314 316 301 299 296 294 292 292 290 291 290 287 283 278 272 270 271 272 267 255 262 257 253 245 243